Flag for Poland Weather past 2 weeks in Gdynia, Poland

Now
57 °F

Passing clouds.


Feels Like: 56 °F
Forecast: 51 / 60 °F
Wind: 7 mph from Northeast

Location: Gdansk-Rebiechowo

Current Time: Sep 30, 2014 at 6:03:47 PM

Latest Report: Sep 30, 2014 at 5:30 PM


Visibility: N/A

Pressure: 30.27 "Hg

Humidity: 82%

Dew point: 52 °F

Location of GdyniaLocation

Historic Weather in Gdynia — Graph

°F

Gdynia temperature yesterday

Maximum temperature yesterday: 66 °F (at 2:30 PM)
Minimum temperature yesterday: 50 °F (at 11:00 PM)
Average temperature yesterday: 57 °F

Past Weeks' High & Low Weather Summary

 TemperatureHumidityPressure
High72 °F (Sep 19, 3:30 PM)100% (Sep 20, 5:00 AM)30.27 "Hg (Sep 20, 5:00 AM)
Low39 °F (Sep 23, 10:30 PM)40% (Sep 18, 2:30 PM)29.56 "Hg (Sep 22, 7:30 AM)
Average55 °F79%30.02 "Hg
* Reported Sep 15 5:00 PM — Sep 30 5:00 PM, Gdynia, Weather by CustomWeather, © 2014

Note: Actual official high and low records may vary slightly from our data, if they occured in-between our weather recording intervals... More about our weather records

Advertising

Gdynia weather history for previous 24 hours

 ConditionsComfort  
Time TempWeatherWind HumidityBarometerVisibility
5:00 PM
Sep 30
57 °FScattered clouds.6 mph88%30.27 "HgN/A
4:30 PM57 °FBroken clouds.5 mph94%30.24 "HgN/A
4:00 PM59 °FBroken clouds.8 mph88%30.24 "HgN/A
3:30 PM59 °FScattered clouds.6 mph88%30.24 "HgN/A
3:00 PM59 °FPartly sunny.7 mph82%30.24 "HgN/A
2:30 PM59 °FPassing clouds.5 mph88%30.24 "HgN/A
2:00 PM59 °FPassing clouds.5 mph82%30.24 "HgN/A
1:30 PM59 °FScattered clouds.7 mph82%30.24 "HgN/A
1:00 PM59 °FPassing clouds.3 mph82%30.24 "HgN/A
12:30 PM59 °FPassing clouds.5 mph88%30.24 "HgN/A
12:00 PM59 °FPassing clouds.5 mph88%30.24 "Hg6 mi
11:30 AM59 °FPassing clouds.3 mph88%30.21 "Hg5 mi
11:00 AM59 °FClear.3 mph88%30.21 "Hg5 mi
10:30 AM57 °FClear.2 mph94%30.21 "Hg4 mi
10:00 AM55 °FFog.3 mph94%30.21 "Hg2 mi
9:30 AM55 °FFog.2 mph94%30.21 "Hg2 mi
9:00 AM54 °FFog.3 mph100%30.21 "Hg2 mi
8:30 AM54 °FFog.2 mph94%30.21 "Hg2 mi
8:00 AM52 °FFog.2 mph94%30.21 "Hg2 mi
7:30 AM52 °FFog.5 mph94%30.18 "Hg2 mi
7:00 AM50 °FFog.3 mph100%30.18 "Hg2 mi
6:30 AM52 °FClear.3 mph94%30.18 "Hg4 mi
6:00 AM50 °FClear.3 mph100%30.18 "Hg4 mi
5:30 AM50 °FClear.2 mph94%30.18 "Hg4 mi
5:00 AM50 °FClear.2 mph94%30.18 "Hg5 mi
4:30 AM50 °FFog.3 mph94%30.18 "Hg3 mi
4:00 AM50 °FFog.2 mph94%30.18 "Hg3 mi
3:30 AM50 °FFog.3 mph94%30.18 "Hg3 mi
3:00 AM48 °FFog.3 mph100%30.18 "Hg3 mi
2:30 AM48 °FFog.3 mph100%30.18 "Hg3 mi
2:00 AM48 °FFog.2 mph100%30.18 "Hg3 mi
1:30 AM50 °FFog.3 mph94%30.18 "Hg3 mi
1:00 AM48 °FFog.2 mph94%30.18 "Hg3 mi
12:30 AM50 °FFog.3 mph94%30.18 "Hg3 mi
12:00 AM50 °FFog.2 mph94%30.18 "Hg3 mi
11:30 PM
Sep 29
50 °FClear.2 mph100%30.18 "Hg4 mi
11:00 PM50 °FPassing clouds.1 mph94%30.18 "Hg5 mi
10:30 PM52 °FPassing clouds.2 mph88%30.18 "HgN/A
10:00 PM52 °FPassing clouds.1 mph94%30.18 "HgN/A
9:30 PM52 °FPassing clouds.No wind94%30.18 "HgN/A
9:00 PM54 °FPassing clouds.No wind88%30.18 "HgN/A
8:30 PM54 °FPassing clouds.No wind88%30.18 "HgN/A
8:00 PM55 °FPassing clouds.1 mph88%30.18 "HgN/A
7:30 PM57 °FPassing clouds.1 mph82%30.18 "HgN/A
7:00 PM57 °FSunny.2 mph82%30.18 "Hg10 mi
6:30 PM61 °FPassing clouds.3 mph72%30.18 "HgN/A
6:00 PM61 °FSunny.5 mph72%30.18 "Hg10 mi
Weather by CustomWeather, © 2014

See weather overviewHow to use our weather pages